Location: Newark
(22.3060°N, 114.2134°E)
Time: 07:13:03
(UTC+00:00)

Explorer 11/Cluster Stage 4 - Pass Details

Date: 05 August 2021
Orbit: 467 x 1256 km, 28.8° (Epoch: 24 September)

Event Time Altitude Azimuth Distance (km) Brightness Sun altitude
Rises 07:47:44 0° 265° (W) 4,012 11.0 43.1°
Reaches altitude 10° 07:53:30 10° 232° (SW) 2,854 10.2 41.8°
Maximum altitude 07:55:07 11° 219° (SW) 2,727 9.9 41.4°
Drops below altitude 10° 07:56:41 10° 205° (SSW) 2,722 9.7 41.1°
Sets 08:01:39 0° 169° (S) 3,425 9.7 39.9°
